This is the latest recevied weather packets stored in our database for station/object K2CAT. If no packets are shown the sender has not sent any weather packets the latest 1 day(s).
| Time | Temp. | Humidity | Pressure | Rain* | Wind** | Luminosity | Snow |
|---|---|---|---|---|---|---|---|
| 1778061548 | 15.56° C | 84% | 1007.5 hPa | 0 mm | - | 3 W/m² | - |
| 1778060942 | 15.56° C | 85% | 1007.5 hPa | 0 mm | - | 2 W/m² | - |
| 1778060641 | 15.56° C | 84% | 1007.6 hPa | 0 mm | - | 1 W/m² | - |
| 1778060338 | 15.56° C | 83% | 1007.6 hPa | 0 mm | - | 0 W/m² | - |
| 1778060036 | 15.56° C | 83% | 1007.5 hPa | 0 mm | - | 0 W/m² | - |
| 1778059127 | 15° C | 84% | 1007.3 hPa | 0 mm | - | 0 W/m² | - |
| 1778058220 | 15.56° C | 83% | 1007.3 hPa | 0 mm | - | 0 W/m² | - |
| 1778057006 | 15.56° C | 82% | 1007.6 hPa | 0 mm | - | 0 W/m² | - |
| 1778056703 | 15.56° C | 82% | 1007.6 hPa | 0 mm | - | 0 W/m² | - |
| 1778056098 | 16.11° C | 81% | 1007.7 hPa | 0 mm | - | 0 W/m² | - |
| 1778055794 | 16.11° C | 80% | 1007.7 hPa | 0 mm | - | 0 W/m² | - |
| 1778054582 | 16.67° C | 78% | 1007.5 hPa | 0 mm | - | 0 W/m² | - |
| 1778054280 | 16.67° C | 78% | 1007.7 hPa | 0 mm | - | 0 W/m² | - |
| 1778053674 | 16.67° C | 77% | 1007.6 hPa | 0 mm | - | 0 W/m² | - |
| 1778053371 | 16.67° C | 77% | 1007.6 hPa | 0 mm | - | 0 W/m² | - |
| 1778053069 | 16.67° C | 77% | 1007.6 hPa | 0 mm | - | 0 W/m² | - |
| 1778052766 | 16.67° C | 76% | 1007.9 hPa | 0 mm | - | 0 W/m² | - |
| 1778052463 | 16.67° C | 76% | 1007.5 hPa | 0 mm | - | 0 W/m² | - |
| 1778052161 | 17.22° C | 76% | 1007.8 hPa | 0 mm | - | 0 W/m² | - |
| 1778051556 | 17.22° C | 74% | 1007.6 hPa | 0 mm | - | 0 W/m² | - |
| 1778050344 | 17.78° C | 73% | 1008 hPa | 0 mm | - | 0 W/m² | - |
| 1778050041 | 17.78° C | 73% | 1008 hPa | 0 mm | - | 0 W/m² | - |
| 1778047619 | 17.22° C | 73% | 1008.3 hPa | 0 mm | - | 0 W/m² | - |
| 1778047315 | 17.22° C | 72% | 1008.1 hPa | 0 mm | - | 0 W/m² | - |
| 1778046709 | 17.22° C | 73% | 1008 hPa | 0 mm | - | 0 W/m² | - |
* Rain latest hour (hover to see other rain measurements)
** Current wind speed in m/s (hover to see current wind gust speed)